Location: Fort Worth, Tx
(32.7431°N, 97.3695°W)
Time: 11:38:34
(UTC-04:00)

Vanguard 2 Rocket - Pass Details

Date: 28 February 2024
Orbit: 555 x 3307 km, 32.9° (Epoch: 23 April)

Event Time Altitude Azimuth Distance (km) Brightness Sun altitude
Rises 20:34:40 0° 284° (WNW) 5,634 12.6 -15.3°
Reaches altitude 10° 20:38:00 10° 280° (W) 4,943 12.0 -16.0°
Maximum altitude 20:52:45 52° 210° (SSW) 3,580 10.0 -19.1°
Drops below altitude 10° 21:11:50 10° 141° (SE) 6,210 10.7 -23.1°
Enters shadow 21:13:56 - 139° (SE) 6,595 10.9 -23.5°
